QPF
0.00 0.00 0.00 0.02 0.04 0.05 0.04 0.03 0.02 0.01 0.01 0.00 0.00 0.00 0.00 0.00 0.00 0.00 0.00 0.00 0.00 0.00 0.00 0.00 0.00 0.00 0.00 0.00 0.00 0.00 0.00 0.00 0.00 0.01 0.01 0.02 0.04 0.04 0.04 0.03 0.03 0.03 0.02 0.02
0.00 0.00 0.02 0.04 0.06 0.05 0.03 0.01 0.01 0.00 0.00 0.00 0.00 0.00 0.00 0.00 0.00 0.00 0.00 0.00 0.00 0.00 0.00 0.00 0.00 0.00 0.00 0.00 0.00 0.00 0.00 0.00 0.01 0.01 0.01 0.01 0.02 0.02 0.03 0.03 0.03 0.03 0.03 0.03
0.01 0.02 0.02 0.03 0.04 0.03 0.01 0.00 0.00 0.00 0.00 0.00 0.00 0.00 0.00 0.00 0.00 0.00 0.00 0.00 0.00 0.00 0.00 0.00 0.00 0.00 0.00 0.00 0.00 0.00 0.00 0.00 0.00 0.01 0.01 0.01 0.01 0.03 0.03 0.02 0.03 0.03 0.03 0.04
0.04 0.03 0.02 0.02 0.02 0.01 0.00 0.00 0.00 0.00 0.00 0.00 0.00 0.00 0.00 0.00 0.00 0.00 0.00 0.00 0.00 0.00 0.00 0.00 0.00 0.00 0.00 0.00 0.00 0.00 0.00 0.00 0.00 0.01 0.01 0.00 0.01 0.02 0.02 0.01 0.02 0.02 0.02 0.02
0.03 0.02 0.00 0.00 0.00 0.00 0.00 0.00 0.00 0.00 0.00 0.00 0.00 0.00 0.00 0.00 0.00 0.00 0.00 0.00 0.00 0.00 0.00 0.00 0.00 0.00 0.00 0.00 0.00 0.00 0.00 0.00 0.01 0.01 0.01 0.00 0.01 0.01 0.01 0.01 0.01 0.01 0.02 0.02
0.01 0.00 0.00 0.00 0.00 0.00 0.00 0.00 0.00 0.00 0.00 0.00 0.00 0.00 0.00 0.00 0.00 0.00 0.00 0.00 0.00 0.00 0.00 0.00 0.00 0.00 0.00 0.00 0.00 0.00 0.00 0.00 0.00 0.00 0.01 0.01 0.00 0.01 0.01 0.01 0.01 0.01 0.02 0.02
0.00 0.00 0.00 0.00 0.00 0.00 0.00 0.00 0.00 0.00 0.00 0.00 0.00 0.00 0.00 0.00 0.00 0.00 0.00 0.00 0.00 0.00 0.00 0.00 0.00 0.00 0.00 0.00 0.00 0.00 0.00 0.00 0.00 0.00 0.01 0.01 0.00 0.00 0.01 0.01 0.01 0.01 0.01 0.01
0.00 0.00 0.00 0.00 0.00 0.00 0.00 0.00 0.00 0.00 0.00 0.00 0.00 0.00 0.00 0.00 0.00 0.00 0.00 0.00 0.00 0.00 0.00 0.00 0.00 0.00 0.00 0.00 0.00 0.00 0.00 0.00 0.00 0.00 0.01 0.01 0.00 0.00 0.00 0.00 0.00 0.00 0.00 0.01
0.00 0.00 0.00 0.00 0.00 0.00 0.00 0.00 0.00 0.00 0.00 0.00 0.00 0.00 0.00 0.00 0.00 0.00 0.00 0.00 0.00 0.00 0.00 0.00 0.00 0.00 0.00 0.00 0.00 0.00 0.00 0.00 0.00 0.00 0.00 0.00 0.00 0.00 0.00 0.00 0.00 0.00 0.00 0.00
0.00 0.00 0.00 0.00 0.00 0.00 0.00 0.00 0.00 0.00 0.00 0.00 0.00 0.00 0.00 0.00 0.00 0.00 0.00 0.00 0.00 0.00 0.00 0.00 0.00 0.00 0.00 0.00 0.00 0.00 0.00 0.00 0.00 0.00 0.00 0.00 0.00 0.00 0.00 0.00 0.00 0.00 0.00 0.00
0.00 0.00 0.00 0.00 0.00 0.00 0.00 0.00 0.00 0.00 0.00 0.00 0.00 0.00 0.00 0.00 0.00 0.00 0.00 0.00 0.00 0.00 0.00 0.00 0.00 0.00 0.00 0.00 0.00 0.00 0.00 0.00 0.00 0.00 0.00 0.00 0.00 0.00 0.00 0.00 0.00 0.00 0.00 0.01
0.00 0.00 0.00 0.00 0.00 0.00 0.00 0.00 0.00 0.00 0.00 0.00 0.00 0.00 0.00 0.00 0.00 0.00 0.00 0.00 0.00 0.00 0.00 0.00 0.00 0.00 0.00 0.00 0.00 0.00 0.00 0.00 0.00 0.00 0.00 0.00 0.00 0.00 0.00 0.00 0.00 0.00 0.00 0.00
0.00 0.00 0.00 0.00 0.00 0.00 0.00 0.00 0.00 0.00 0.00 0.00 0.00 0.00 0.00 0.00 0.00 0.00 0.00 0.00 0.00 0.00 0.00 0.00 0.00 0.00 0.00 0.00 0.00 0.00 0.00 0.00 0.00 0.00 0.00 0.00 0.00 0.00 0.00 0.00 0.00 0.00 0.00 0.00
0.00 0.00 0.00 0.00 0.00 0.00 0.00 0.00 0.00 0.00 0.00 0.00 0.00 0.00 0.00 0.00 0.00 0.00 0.00 0.00 0.00 0.00 0.00 0.00 0.00 0.00 0.00 0.00 0.00 0.00 0.00 0.00 0.00 0.00 0.00 0.00 0.00 0.00 0.00 0.00 0.00 0.00 0.00 0.00
0.00 0.00 0.00 0.00 0.00 0.00 0.00 0.00 0.00 0.00 0.00 0.00 0.00 0.00 0.00 0.00 0.00 0.00 0.00 0.00 0.00 0.00 0.00 0.00 0.00 0.00 0.00 0.00 0.00 0.00 0.00 0.00 0.00 0.00 0.00 0.00 0.00 0.00 0.00 0.00 0.00 0.00 0.00 0.00
0.00 0.00 0.00 0.00 0.00 0.00 0.00 0.00 0.00 0.00 0.00 0.00 0.00 0.00 0.00 0.00 0.00 0.00 0.00 0.00 0.00 0.00 0.00 0.00 0.00 0.00 0.00 0.00 0.00 0.00 0.00 0.00 0.00 0.00 0.00 0.00 0.00 0.00 0.00 0.00 0.00 0.00 0.00 0.00
0.00 0.00 0.00 0.00 0.00 0.00 0.00 0.00 0.00 0.00 0.00 0.00 0.00 0.00 0.00 0.00 0.00 0.00 0.00 0.00 0.00 0.00 0.00 0.00 0.00 0.00 0.00 0.00 0.00 0.00 0.00 0.00 0.00 0.00 0.00 0.00 0.00 0.00 0.00 0.00 0.00 0.00 0.00 0.00
0.00 0.00 0.00 0.00 0.00 0.00 0.00 0.00 0.00 0.00 0.00 0.00 0.00 0.00 0.00 0.00 0.00 0.00 0.00 0.00 0.00 0.00 0.00 0.00 0.00 0.00 0.00 0.00 0.00 0.00 0.00 0.00 0.00 0.00 0.00 0.00 0.00 0.00 0.00 0.00 0.00 0.00 0.00 0.01
0.00 0.00 0.00 0.00 0.00 0.00 0.00 0.00 0.00 0.00 0.00 0.00 0.00 0.00 0.00 0.00 0.00 0.00 0.00 0.00 0.00 0.00 0.00 0.00 0.00 0.00 0.00 0.00 0.00 0.00 0.00 0.00 0.00 0.00 0.00 0.00 0.00 0.00 0.00 0.00 0.00 0.00 0.00 0.00
0.00 0.00 0.00 0.00 0.00 0.00 0.00 0.00 0.00 0.00 0.00 0.00 0.00 0.00 0.00 0.00 0.00 0.00 0.00 0.00 0.00 0.00 0.00 0.00 0.00 0.00 0.00 0.00 0.00 0.00 0.00 0.00 0.00 0.00 0.00 0.00 0.00 0.00 0.00 0.00 0.00 0.00 0.00 0.00
0.00 0.00 0.00 0.00 0.00 0.00 0.00 0.00 0.00 0.00 0.00 0.00 0.00 0.00 0.00 0.00 0.00 0.00 0.00 0.00 0.00 0.00 0.00 0.00 0.00 0.00 0.00 0.00 0.00 0.00 0.00 0.00 0.00 0.00 0.00 0.00 0.00 0.00 0.00 0.00 0.00 0.00 0.00 0.00
0.00 0.00 0.00 0.00 0.00 0.00 0.00 0.00 0.00 0.00 0.00 0.00 0.00 0.00 0.00 0.00 0.00 0.00 0.00 0.00 0.00 0.00 0.00 0.00 0.00 0.00 0.00 0.00 0.00 0.00 0.00 0.00 0.00 0.00 0.00 0.00 0.00 0.00 0.00 0.00 0.00 0.00 0.00 0.00
0.00 0.00 0.00 0.00 0.00 0.00 0.00 0.00 0.00 0.00 0.00 0.00 0.00 0.00 0.00 0.00 0.00 0.00 0.00 0.00 0.00 0.00 0.00 0.00 0.00 0.00 0.00 0.00 0.00 0.00 0.00 0.00 0.00 0.00 0.00 0.00 0.00 0.00 0.00 0.00 0.00 0.00 0.00 0.00
0.00 0.00 0.00 0.00 0.00 0.00 0.00 0.00 0.00 0.00 0.00 0.00 0.00 0.00 0.00 0.00 0.00 0.00 0.00 0.00 0.00 0.00 0.00 0.00 0.00 0.00 0.00 0.00 0.00 0.00 0.00 0.00 0.00 0.00 0.00 0.00 0.00 0.00 0.00 0.00 0.00 0.00 0.00 0.00
0.00 0.00 0.00 0.00 0.00 0.00 0.00 0.00 0.00 0.00 0.00 0.00 0.00 0.00 0.00 0.00 0.00 0.00 0.00 0.00 0.00 0.00 0.00 0.00 0.00 0.00 0.00 0.00 0.00 0.00 0.00 0.00 0.00 0.00 0.00 0.00 0.00 0.00 0.00 0.00 0.00 0.00 0.00 0.00
0.00 0.00 0.00 0.00 0.00 0.00 0.00 0.00 0.00 0.00 0.00 0.00 0.00 0.00 0.00 0.00 0.00 0.00 0.00 0.00 0.00 0.00 0.00 0.00 0.00 0.00 0.00 0.00 0.00 0.00 0.00 0.00 0.00 0.00 0.00 0.00 0.00 0.00 0.00 0.00 0.00 0.00 0.00 0.00
MSLP
1008.93 1009.96 1010.88 1011.67 1012.33 1012.86 1013.28 1013.61 1013.87 1014.05 1014.15 1014.16 1014.09 1013.94 1013.72 1013.48 1013.25 1013.06 1012.96 1012.95 1013.03 1013.20 1013.42 1013.67 1013.92 1014.14 1014.32 1014.45 1014.53 1014.57 1014.57 1014.55 1014.50 1014.43 1014.35 1014.25 1014.13 1014.00 1013.85 1013.69 1013.52 1013.34 1013.16 1012.98
1009.58 1010.48 1011.27 1011.93 1012.48 1012.93 1013.30 1013.61 1013.87 1014.06 1014.16 1014.16 1014.05 1013.84 1013.56 1013.25 1012.97 1012.75 1012.64 1012.64 1012.76 1012.97 1013.24 1013.52 1013.79 1014.01 1014.17 1014.29 1014.36 1014.41 1014.44 1014.47 1014.49 1014.50 1014.49 1014.44 1014.35 1014.22 1014.05 1013.85 1013.64 1013.43 1013.23 1013.06
1010.06 1010.83 1011.47 1012.01 1012.46 1012.84 1013.19 1013.51 1013.79 1014.01 1014.12 1014.13 1014.00 1013.76 1013.44 1013.08 1012.76 1012.52 1012.41 1012.43 1012.58 1012.82 1013.12 1013.42 1013.68 1013.88 1014.02 1014.11 1014.17 1014.22 1014.28 1014.36 1014.45 1014.54 1014.60 1014.61 1014.56 1014.43 1014.25 1014.02 1013.77 1013.53 1013.31 1013.13
1010.36 1010.99 1011.51 1011.94 1012.33 1012.68 1013.04 1013.40 1013.73 1013.99 1014.15 1014.17 1014.04 1013.78 1013.42 1013.02 1012.66 1012.40 1012.28 1012.31 1012.48 1012.74 1013.05 1013.35 1013.60 1013.77 1013.88 1013.93 1013.97 1014.01 1014.09 1014.22 1014.37 1014.53 1014.65 1014.72 1014.71 1014.60 1014.40 1014.15 1013.87 1013.60 1013.37 1013.18
1010.51 1011.02 1011.45 1011.82 1012.17 1012.55 1012.95 1013.37 1013.77 1014.11 1014.31 1014.36 1014.22 1013.93 1013.52 1013.08 1012.68 1012.38 1012.24 1012.26 1012.43 1012.69 1013.01 1013.30 1013.53 1013.67 1013.74 1013.76 1013.77 1013.80 1013.89 1014.04 1014.23 1014.44 1014.63 1014.74 1014.76 1014.67 1014.48 1014.22 1013.92 1013.63 1013.38 1013.18
1010.57 1010.99 1011.36 1011.70 1012.08 1012.50 1012.98 1013.48 1013.97 1014.37 1014.61 1014.67 1014.52 1014.19 1013.73 1013.23 1012.76 1012.42 1012.23 1012.23 1012.39 1012.65 1012.96 1013.24 1013.46 1013.58 1013.62 1013.61 1013.58 1013.59 1013.67 1013.82 1014.03 1014.27 1014.49 1014.64 1014.70 1014.63 1014.45 1014.19 1013.89 1013.59 1013.33 1013.12
1010.61 1010.97 1011.31 1011.67 1012.08 1012.57 1013.13 1013.72 1014.28 1014.73 1015.00 1015.06 1014.88 1014.49 1013.97 1013.39 1012.85 1012.45 1012.22 1012.18 1012.32 1012.57 1012.88 1013.16 1013.37 1013.48 1013.50 1013.46 1013.41 1013.39 1013.44 1013.57 1013.77 1014.01 1014.24 1014.41 1014.49 1014.45 1014.29 1014.05 1013.76 1013.47 1013.20 1013.00
1010.67 1011.00 1011.34 1011.72 1012.19 1012.74 1013.37 1014.02 1014.62 1015.10 1015.37 1015.41 1015.18 1014.74 1014.14 1013.49 1012.88 1012.41 1012.14 1012.07 1012.19 1012.44 1012.75 1013.04 1013.26 1013.38 1013.39 1013.34 1013.26 1013.20 1013.21 1013.31 1013.47 1013.69 1013.91 1014.08 1014.17 1014.15 1014.02 1013.81 1013.54 1013.27 1013.02 1012.82
1010.78 1011.09 1011.44 1011.86 1012.36 1012.96 1013.62 1014.29 1014.90 1015.36 1015.61 1015.60 1015.33 1014.83 1014.17 1013.46 1012.80 1012.28 1011.97 1011.88 1011.98 1012.23 1012.56 1012.87 1013.11 1013.25 1013.28 1013.22 1013.13 1013.04 1013.01 1013.05 1013.16 1013.34 1013.52 1013.68 1013.77 1013.77 1013.68 1013.50 1013.28 1013.04 1012.81 1012.63
1010.90 1011.23 1011.59 1012.02 1012.53 1013.13 1013.78 1014.43 1015.00 1015.42 1015.62 1015.56 1015.24 1014.70 1014.01 1013.27 1012.59 1012.05 1011.72 1011.62 1011.72 1011.97 1012.31 1012.65 1012.92 1013.09 1013.14 1013.10 1013.01 1012.90 1012.83 1012.82 1012.88 1013.00 1013.14 1013.28 1013.36 1013.38 1013.32 1013.19 1013.01 1012.81 1012.62 1012.46
1011.02 1011.36 1011.73 1012.16 1012.65 1013.21 1013.80 1014.38 1014.88 1015.22 1015.36 1015.26 1014.91 1014.36 1013.68 1012.95 1012.28 1011.76 1011.43 1011.33 1011.43 1011.69 1012.03 1012.39 1012.68 1012.88 1012.97 1012.95 1012.87 1012.76 1012.67 1012.62 1012.64 1012.71 1012.82 1012.93 1013.01 1013.04 1013.01 1012.93 1012.79 1012.64 1012.48 1012.33
1011.09 1011.45 1011.82 1012.23 1012.67 1013.15 1013.65 1014.13 1014.53 1014.79 1014.86 1014.73 1014.38 1013.86 1013.22 1012.55 1011.93 1011.45 1011.15 1011.06 1011.16 1011.40 1011.74 1012.09 1012.40 1012.62 1012.73 1012.75 1012.70 1012.60 1012.51 1012.46 1012.45 1012.49 1012.57 1012.67 1012.75 1012.80 1012.80 1012.75 1012.66 1012.54 1012.41 1012.28
1011.10 1011.48 1011.85 1012.21 1012.59 1012.98 1013.37 1013.72 1014.01 1014.18 1014.20 1014.05 1013.73 1013.27 1012.71 1012.13 1011.60 1011.18 1010.92 1010.84 1010.92 1011.14 1011.44 1011.76 1012.06 1012.28 1012.42 1012.47 1012.45 1012.39 1012.33 1012.29 1012.29 1012.33 1012.41 1012.50 1012.58 1012.65 1012.67 1012.65 1012.59 1012.50 1012.38 1012.26
1011.06 1011.45 1011.81 1012.13 1012.44 1012.72 1012.99 1013.22 1013.39 1013.48 1013.46 1013.31 1013.04 1012.67 1012.22 1011.76 1011.33 1010.99 1010.77 1010.69 1010.74 1010.91 1011.14 1011.41 1011.66 1011.86 1012.00 1012.08 1012.10 1012.09 1012.08 1012.08 1012.11 1012.18 1012.27 1012.37 1012.48 1012.56 1012.60 1012.61 1012.57 1012.49 1012.38 1012.24
1010.98 1011.38 1011.72 1012.01 1012.23 1012.41 1012.56 1012.67 1012.74 1012.75 1012.70 1012.57 1012.36 1012.09 1011.77 1011.43 1011.12 1010.85 1010.68 1010.59 1010.60 1010.69 1010.84 1011.02 1011.21 1011.37 1011.49 1011.59 1011.65 1011.70 1011.75 1011.81 1011.89 1012.00 1012.12 1012.25 1012.37 1012.46 1012.52 1012.54 1012.51 1012.44 1012.32 1012.18
1010.90 1011.29 1011.61 1011.84 1011.99 1012.08 1012.12 1012.12 1012.09 1012.04 1011.96 1011.85 1011.71 1011.53 1011.34 1011.13 1010.92 1010.74 1010.60 1010.51 1010.48 1010.49 1010.54 1010.63 1010.72 1010.83 1010.92 1011.02 1011.12 1011.21 1011.32 1011.45 1011.59 1011.74 1011.90 1012.05 1012.19 1012.30 1012.37 1012.39 1012.36 1012.29 1012.17 1012.01
1010.82 1011.19 1011.47 1011.64 1011.72 1011.72 1011.66 1011.56 1011.45 1011.34 1011.23 1011.14 1011.05 1010.97 1010.88 1010.79 1010.69 1010.59 1010.50 1010.41 1010.34 1010.28 1010.25 1010.24 1010.25 1010.28 1010.35 1010.43 1010.54 1010.68 1010.83 1011.01 1011.20 1011.39 1011.58 1011.75 1011.90 1012.01 1012.08 1012.10 1012.07 1011.99 1011.87 1011.71
1010.73 1011.05 1011.27 1011.38 1011.38 1011.29 1011.14 1010.96 1010.77 1010.60 1010.47 1010.39 1010.35 1010.34 1010.35 1010.37 1010.37 1010.36 1010.32 1010.26 1010.17 1010.07 1009.98 1009.89 1009.83 1009.81 1009.83 1009.89 1010.00 1010.15 1010.33 1010.53 1010.75 1010.96 1011.16 1011.33 1011.47 1011.57 1011.63 1011.65 1011.61 1011.53 1011.42 1011.26
1010.60 1010.84 1010.98 1011.01 1010.93 1010.77 1010.54 1010.28 1010.02 1009.81 1009.66 1009.58 1009.57 1009.62 1009.72 1009.84 1009.94 1010.02 1010.06 1010.05 1009.99 1009.89 1009.77 1009.64 1009.54 1009.47 1009.45 1009.48 1009.57 1009.70 1009.88 1010.08 1010.28 1010.48 1010.66 1010.81 1010.93 1011.01 1011.05 1011.05 1011.01 1010.94 1010.84 1010.70
1010.36 1010.50 1010.55 1010.49 1010.34 1010.11 1009.81 1009.49 1009.19 1008.95 1008.78 1008.70 1008.72 1008.83 1009.01 1009.22 1009.43 1009.61 1009.74 1009.81 1009.81 1009.75 1009.65 1009.53 1009.41 1009.32 1009.26 1009.26 1009.32 1009.41 1009.55 1009.71 1009.87 1010.02 1010.15 1010.26 1010.33 1010.36 1010.37 1010.35 1010.31 1010.25 1010.17 1010.07
1009.98 1010.00 1009.95 1009.82 1009.60 1009.31 1008.97 1008.63 1008.30 1008.04 1007.88 1007.82 1007.88 1008.04 1008.29 1008.59 1008.90 1009.19 1009.43 1009.60 1009.70 1009.72 1009.67 1009.58 1009.48 1009.38 1009.31 1009.27 1009.28 1009.32 1009.40 1009.48 1009.57 1009.65 1009.70 1009.73 1009.73 1009.71 1009.67 1009.62 1009.57 1009.51 1009.46 1009.41
1009.42 1009.33 1009.19 1008.99 1008.72 1008.41 1008.06 1007.72 1007.41 1007.17 1007.03 1007.01 1007.11 1007.33 1007.65 1008.03 1008.44 1008.84 1009.20 1009.48 1009.68 1009.79 1009.83 1009.80 1009.74 1009.65 1009.57 1009.51 1009.46 1009.44 1009.43 1009.43 1009.42 1009.40 1009.35 1009.29 1009.20 1009.11 1009.01 1008.92 1008.84 1008.78 1008.75 1008.73
1008.67 1008.49 1008.28 1008.03 1007.75 1007.45 1007.13 1006.84 1006.59 1006.41 1006.33 1006.37 1006.53 1006.81 1007.19 1007.65 1008.14 1008.63 1009.09 1009.48 1009.78 1009.99 1010.12 1010.16 1010.15 1010.09 1010.01 1009.92 1009.83 1009.74 1009.65 1009.55 1009.43 1009.30 1009.15 1008.98 1008.80 1008.61 1008.44 1008.28 1008.17 1008.09 1008.05 1008.06
1007.77 1007.51 1007.25 1007.00 1006.74 1006.48 1006.25 1006.04 1005.89 1005.82 1005.83 1005.95 1006.19 1006.54 1006.98 1007.49 1008.04 1008.60 1009.13 1009.60 1009.99 1010.29 1010.49 1010.60 1010.64 1010.62 1010.54 1010.44 1010.31 1010.17 1010.00 1009.81 1009.60 1009.36 1009.10 1008.82 1008.53 1008.25 1007.98 1007.76 1007.57 1007.45 1007.39 1007.40
1006.75 1006.45 1006.17 1005.93 1005.73 1005.57 1005.45 1005.38 1005.37 1005.42 1005.56 1005.79 1006.10 1006.51 1007.00 1007.55 1008.14 1008.73 1009.30 1009.81 1010.26 1010.62 1010.88 1011.05 1011.14 1011.15 1011.10 1010.99 1010.85 1010.66 1010.43 1010.17 1009.88 1009.55 1009.19 1008.81 1008.42 1008.04 1007.68 1007.35 1007.09 1006.89 1006.78 1006.74
1005.66 1005.34 1005.08 1004.89 1004.77 1004.73 1004.75 1004.84 1004.99 1005.20 1005.47 1005.81 1006.22 1006.69 1007.21 1007.78 1008.37 1008.97 1009.54 1010.07 1010.54 1010.93 1011.23 1011.45 1011.57 1011.62 1011.60 1011.51 1011.36 1011.15 1010.90 1010.59 1010.24 1009.84 1009.41 1008.94 1008.46 1007.98 1007.52 1007.09 1006.73 1006.44 1006.24 1006.14
Thickness
5785 5776 5767 5771 5772 5765 5759 5755 5757 5764 5768 5761 5754 5756 5759 5759 5752 5746 5744 5742 5740 5737 5736 5731 5725 5719 5713 5708 5703 5698 5693 5690 5686 5681 5678 5675 5674 5674 5676 5677 5677 5679 5681 5684
5770 5766 5777 5780 5772 5762 5761 5758 5762 5767 5769 5760 5753 5755 5765 5761 5754 5750 5746 5743 5742 5737 5733 5729 5724 5718 5712 5706 5701 5697 5692 5688 5684 5680 5677 5675 5673 5672 5673 5673 5673 5674 5676 5678
5763 5774 5785 5775 5764 5759 5761 5759 5759 5756 5762 5762 5750 5746 5757 5762 5759 5754 5749 5745 5742 5737 5731 5726 5721 5716 5711 5706 5701 5697 5692 5688 5684 5680 5677 5673 5672 5671 5669 5668 5669 5671 5673 5675
5760 5772 5775 5769 5767 5764 5755 5764 5760 5754 5743 5742 5749 5726 5749 5755 5750 5749 5747 5744 5741 5738 5733 5726 5721 5715 5711 5707 5702 5697 5692 5688 5684 5680 5676 5671 5667 5665 5665 5666 5667 5669 5671 5672
5753 5767 5769 5764 5766 5766 5759 5764 5758 5753 5744 5739 5748 5734 5744 5753 5744 5746 5747 5745 5743 5739 5733 5727 5722 5717 5713 5708 5703 5698 5693 5689 5685 5681 5677 5673 5669 5667 5666 5666 5666 5666 5668 5669
5760 5776 5775 5769 5769 5767 5763 5757 5754 5751 5742 5726 5748 5739 5737 5746 5747 5748 5748 5747 5744 5740 5735 5729 5725 5720 5715 5711 5705 5700 5695 5690 5687 5683 5680 5676 5672 5669 5666 5665 5664 5664 5665 5666
5748 5760 5768 5771 5757 5756 5754 5740 5726 5723 5720 5733 5755 5741 5741 5751 5756 5752 5748 5746 5745 5741 5735 5730 5725 5720 5716 5711 5707 5703 5698 5692 5689 5685 5682 5679 5675 5671 5668 5665 5663 5662 5662 5662
5739 5737 5755 5762 5756 5750 5751 5745 5723 5715 5729 5741 5747 5739 5745 5759 5759 5756 5753 5749 5745 5741 5737 5733 5728 5723 5718 5715 5711 5706 5701 5696 5692 5688 5684 5681 5678 5673 5669 5667 5664 5662 5661 5660
5744 5740 5759 5762 5763 5755 5746 5745 5752 5733 5737 5734 5746 5749 5747 5758 5755 5753 5751 5748 5744 5742 5739 5735 5732 5727 5723 5719 5715 5710 5705 5700 5696 5691 5687 5684 5679 5675 5671 5668 5666 5663 5661 5660
5754 5733 5745 5751 5754 5752 5751 5748 5742 5730 5721 5724 5743 5744 5740 5744 5749 5752 5751 5748 5747 5746 5743 5739 5734 5730 5727 5723 5719 5715 5710 5705 5700 5695 5691 5687 5682 5678 5674 5670 5666 5663 5661 5660
5760 5743 5738 5741 5738 5742 5740 5739 5738 5735 5735 5719 5718 5728 5758 5753 5754 5753 5754 5755 5752 5749 5745 5741 5737 5734 5731 5727 5723 5718 5714 5708 5703 5698 5693 5688 5685 5681 5677 5672 5669 5665 5662 5660
5761 5751 5739 5742 5758 5759 5752 5747 5742 5725 5730 5735 5721 5728 5763 5760 5760 5758 5757 5758 5757 5753 5749 5745 5741 5736 5732 5728 5724 5720 5716 5711 5706 5700 5695 5691 5687 5683 5678 5674 5670 5667 5663 5661
5757 5743 5732 5729 5734 5744 5742 5746 5746 5741 5733 5729 5724 5731 5763 5765 5762 5762 5760 5759 5757 5754 5751 5747 5742 5737 5733 5729 5726 5722 5718 5713 5708 5703 5697 5692 5688 5684 5679 5675 5671 5667 5664 5661
5753 5742 5735 5727 5734 5741 5737 5742 5744 5737 5725 5731 5740 5743 5755 5761 5761 5761 5761 5760 5758 5756 5752 5747 5742 5738 5735 5732 5728 5725 5720 5716 5710 5705 5699 5693 5689 5685 5681 5676 5672 5668 5664 5660
5749 5736 5746 5753 5756 5752 5748 5746 5744 5738 5739 5736 5745 5747 5755 5761 5761 5762 5762 5761 5758 5755 5752 5749 5744 5740 5737 5733 5730 5726 5721 5717 5712 5706 5700 5695 5691 5686 5681 5676 5672 5668 5663 5660
5747 5739 5744 5747 5754 5751 5746 5751 5751 5747 5747 5746 5747 5748 5767 5768 5766 5763 5763 5761 5756 5754 5753 5751 5748 5743 5739 5735 5732 5728 5722 5718 5713 5707 5701 5697 5691 5686 5680 5676 5672 5667 5663 5660
5745 5739 5734 5737 5752 5746 5737 5756 5756 5754 5756 5752 5744 5754 5766 5763 5762 5761 5761 5760 5758 5756 5755 5752 5748 5745 5741 5738 5734 5728 5723 5719 5713 5708 5702 5697 5692 5686 5681 5677 5672 5667 5663 5660
5749 5743 5740 5736 5741 5720 5756 5784 5778 5764 5763 5766 5763 5765 5766 5764 5764 5765 5765 5761 5758 5758 5755 5752 5749 5746 5743 5741 5736 5731 5725 5719 5713 5708 5703 5698 5693 5687 5682 5677 5672 5668 5665 5661
5758 5747 5737 5734 5731 5741 5760 5773 5773 5762 5758 5772 5768 5767 5768 5769 5764 5761 5765 5764 5760 5758 5755 5753 5751 5748 5744 5741 5736 5730 5724 5719 5713 5708 5703 5699 5694 5688 5683 5678 5674 5670 5666 5662
5751 5749 5737 5734 5724 5726 5761 5780 5783 5767 5750 5776 5773 5768 5766 5763 5747 5748 5761 5761 5759 5757 5754 5751 5749 5746 5742 5739 5735 5727 5721 5717 5712 5708 5705 5701 5696 5690 5684 5680 5676 5672 5669 5664
5730 5731 5728 5724 5725 5745 5769 5779 5773 5739 5751 5778 5776 5770 5766 5759 5753 5756 5759 5757 5755 5752 5750 5748 5745 5740 5737 5735 5731 5723 5719 5715 5713 5710 5705 5700 5696 5691 5686 5682 5678 5674 5670 5666
5735 5730 5730 5728 5721 5737 5770 5769 5759 5761 5778 5778 5774 5771 5766 5761 5759 5757 5754 5751 5749 5747 5744 5742 5738 5735 5734 5731 5726 5719 5715 5715 5712 5708 5703 5698 5695 5691 5689 5683 5679 5675 5671 5666
5753 5753 5751 5749 5748 5766 5774 5772 5774 5777 5774 5773 5770 5768 5763 5758 5754 5752 5749 5746 5744 5742 5739 5737 5733 5729 5728 5726 5721 5714 5712 5712 5708 5704 5700 5697 5695 5692 5688 5684 5680 5676 5672 5667
5764 5771 5761 5757 5758 5764 5769 5771 5769 5770 5770 5770 5767 5763 5759 5754 5751 5746 5743 5740 5737 5735 5732 5730 5726 5722 5719 5718 5715 5710 5708 5706 5703 5699 5697 5696 5693 5691 5689 5686 5682 5677 5672 5668
5759 5763 5756 5752 5761 5762 5763 5766 5766 5764 5765 5763 5760 5758 5755 5750 5745 5741 5737 5733 5730 5727 5725 5722 5717 5713 5711 5710 5707 5704 5701 5699 5696 5694 5693 5692 5691 5689 5687 5685 5682 5679 5676 5671
5759 5757 5748 5746 5762 5759 5760 5766 5765 5759 5756 5755 5752 5748 5747 5744 5739 5735 5729 5724 5721 5719 5716 5712 5708 5705 5702 5700 5696 5693 5691 5689 5687 5685 5685 5684 5683 5682 5681 5680 5680 5680 5677 5675